This demonstration page uses our WeatherBlox Daily Observations layout. Learn more.

Left ArrowRight Arrow

36.19886, -115.1175

Hourly Observations for June 17, 2021

Temp ( °F °C ) Dew Point ( °F °C ) Humidity (%) Winds ( mph kmh ) Pressure ( in mb ) Visibility ( mi km ) Precip ( " mm )
12:53 am 00:53 Clear 97 36.1 29 -1.7 9 9 NW 10 17 29.69 1005 10 16 N/A
1:53 am 01:53 Clear 94 34.4 33 0.6 12 12 W 6 9 29.70 1006 10 16 N/A
2:53 am 02:53 Clear 96 35.6 28 -2.2 9 9 NNW 14 22 29.68 1005 10 16 N/A
3:53 am 03:53 Clear 93 33.9 29 -1.7 10 10 W 6 9 29.70 1006 10 16 N/A
4:53 am 04:53 Clear 93 33.9 30 -1.1 10 10 NW 10 17 29.72 1007 10 16 N/A
5:53 am 05:53 Sunny 94 34.4 33 0.6 12 12 SW 7 11 29.74 1007 10 16 N/A
6:53 am 06:53 Sunny 94 34.4 34 1.1 12 12 WNW 10 17 29.73 1007 10 16 N/A
7:53 am 07:53 Sunny 94 34.4 37 2.8 14 14 N N/A 29.76 1008 10 16 N/A
8:53 am 08:53 Sunny 99 37.2 35 1.7 11 11 N N/A 29.76 1008 10 16 N/A
9:53 am 09:53 Sunny 101 38.3 37 2.8 11 11 E 7 11 29.77 1008 10 16 N/A
10:53 am 10:53 Sunny 105 40.6 35 1.7 9 9 WNW 7 11 29.76 1008 10 16 N/A
11:53 am 11:53 Sunny 110 43.3 36 2.2 8 8 VRB 7 11 29.73 1007 10 16 N/A
12:53 pm 12:53 Sunny 111 43.9 34 1.1 7 7 SW 5 7 29.71 1006 10 16 N/A
1:53 pm 13:53 Sunny 113 45 32 undefined 6 6 W 7 11 29.68 1005 10 16 N/A
2:53 pm 14:53 Sunny 114 45.6 31 -0.6 6 6 N N/A 29.66 1004 10 16 N/A
3:53 pm 15:53 Sunny 114 45.6 32 undefined 6 6 E 7 11 29.64 1004 10 16 N/A
4:53 pm 16:53 Sunny 114 45.6 31 -0.6 6 6 E 5 7 29.62 1003 10 16 N/A
5:53 pm 17:53 Sunny 112 44.4 32 undefined 6 6 VRB 3 6 29.61 1003 10 16 N/A
6:53 pm 18:53 Sunny 112 44.4 32 undefined 6 6 ESE 7 11 29.61 1003 10 16 N/A
7:53 pm 19:53 Sunny 110 43.3 32 undefined 7 7 ENE 5 7 29.62 1003 10 16 N/A
8:53 pm 20:53 Clear 108 42.2 33 0.6 7 7 SSE 5 7 29.62 1003 10 16 N/A
9:53 pm 21:53 Clear 106 41.1 35 1.7 9 9 WNW 3 6 29.64 1004 10 16 N/A
10:53 pm 22:53 Clear 98 36.7 39 3.9 13 13 WNW 7 11 29.64 1004 10 16 N/A
11:53 pm 23:53 Clear 96 35.6 41 5 15 15 NW 7 11 29.64 1004 10 16 N/A

Powered by AerisWeather